Starlink 31102

operational
NORAD ID: 58715 Int'l Des: 2024-002 Owner: SPXS Country: US Constellation: starlink
LEOCIRCULAR

Starlink 31102について

説明を読み込み中...

リアルタイム位置

3D地球を読み込み中...

次回通過

高度履歴

Altitude vs Time

uPlot chart will show altitude changes over time

軌道要素

1 58715U 24002L 25257.47721399 -.00002184 00000-0 -61621-4 0 9994
2 58715 53.1627 328.6184 0001291 74.1441 285.9702 15.30199241 95033
Epoch: Sep 14, 2025 • Age: 34 hours

現在のステータス

高度 494.1 km
速度 7.62 km/s
衛星直下点 -51.81°S, 104.22°W
打ち上げ日 Jan 3, 2024
運用期間 1.7 years
タイプ internet

技術仕様

分類 Payload
質量 730.00 kg
乾燥質量 700.00 kg
総質量 730.00 kg
長さ 0.30 m
直径 4.10 m
スパン 29.00 m
形状 Box + pan
製造者 SPXS
バスタイプ Starlink V2M
フェーズステータス In Orbit
所有者/国 SPXS/US

大規模コンステレーション

Loading constellations...